Wind_Speed
13 13 14 18 19 19 19 19 19 21 22 25 27 28 30 31 31 32 32 33 32 32 33 33 32 32 32 32 31 31 31 31 29
12 13 15 17 19 20 22 24 24 25 26 26 27 28 29 30 29 30 30 31 32 31 32 33 33 32 32 34 36 35 35 36 35
11 12 14 16 18 20 21 23 25 28 29 30 30 32 33 33 33 34 34 34 34 34 34 35 36 37 37 37 38 39 41 40 40
14 14 15 16 17 17 19 21 22 23 25 25 27 28 30 30 31 33 34 36 37 38 39 38 38 39 41 42 42 43 43 44 44
16 17 17 18 19 20 20 22 22 23 23 23 24 26 27 28 30 31 32 33 34 36 37 38 39 40 41 42 44 45 45 46 47
17 19 19 20 22 22 24 25 26 27 27 28 29 30 31 33 35 36 37 39 40 40 41 40 41 42 43 44 45 46 46 46 45
19 21 23 26 29 31 35 37 37 36 34 33 33 33 34 35 36 37 38 37 38 40 42 44 45 45 45 45 44 43 41 42 41
23 26 27 30 33 36 38 38 37 38 35 36 36 35 37 38 39 38 37 36 38 38 38 39 41 40 40 41 40 39 38 38 39
26 28 30 31 35 35 34 33 32 34 34 34 35 37 39 40 41 40 38 38 37 37 37 38 38 38 38 39 39 38 38 39 40
29 29 30 32 33 32 28 25 25 27 29 31 33 35 37 36 38 38 38 37 37 37 37 38 39 40 41 41 42 41 41 42 42
27 27 28 32 33 28 23 24 27 30 32 33 35 36 38 41 42 41 40 39 38 39 40 41 41 42 43 43 44 45 45 45 45
27 27 29 31 29 28 27 28 30 33 35 37 40 41 42 43 43 42 41 40 40 41 42 43 43 44 45 46 47 48 49 50 52
26 28 31 31 33 32 30 32 34 37 40 43 45 45 45 46 44 41 39 40 41 42 43 45 46 47 49 51 52 53 55 56 57
29 32 33 35 34 32 33 36 38 41 43 44 45 45 46 43 39 40 42 43 44 45 47 49 51 52 54 55 56 57 59 60 60
31 33 34 35 32 33 36 39 41 43 43 44 44 42 37 40 42 43 45 46 47 50 52 53 55 57 58 60 61 63 64 64 64
33 33 34 33 34 36 38 41 42 42 44 43 41 39 41 43 44 46 47 50 53 55 57 59 61 62 64 65 66 67 68 69 69
33 34 35 36 37 38 41 42 44 45 44 41 40 40 44 46 48 50 52 54 56 60 63 63 65 67 68 69 69 68 68 69 69
35 37 39 40 39 42 43 44 47 46 44 43 44 45 45 47 47 50 54 58 62 64 65 66 67 67 67 67 68 69 71 74 75
38 41 42 43 44 44 45 46 46 43 45 47 49 51 54 55 54 53 58 60 62 64 65 64 65 65 67 69 72 75 78 81 83
41 43 44 45 44 45 47 46 44 45 47 49 52 55 58 62 65 64 61 63 66 64 63 62 64 67 71 75 78 81 84 88 91
Wind_Direction
279 281 282 278 280 286 288 287 286 283 280 279 278 279 281 281 282 282 282 281 281 280 277 277 275 271 268 269 269 272 274 273 272
291 289 287 283 282 281 282 285 285 284 283 283 284 285 285 286 288 288 287 285 283 281 278 276 275 274 271 269 271 272 274 275 274
289 288 288 287 287 285 285 287 286 286 285 284 283 283 283 285 286 286 287 286 285 282 279 276 276 276 275 273 273 272 273 274 272
279 285 286 287 288 292 295 292 293 294 291 290 290 289 290 290 291 291 290 289 287 285 284 281 278 276 276 276 274 274 274 273 272
276 279 280 284 287 290 294 295 296 295 295 298 298 296 294 294 294 291 290 288 287 287 285 284 281 279 277 277 276 275 274 273 272
273 274 278 282 290 296 296 295 296 295 294 295 296 294 293 293 294 293 292 289 286 285 284 283 282 280 278 277 276 275 275 274 274
273 279 284 291 297 298 299 298 295 295 294 295 297 296 296 299 298 296 293 291 288 286 285 283 281 281 281 280 278 277 276 275 274
278 285 291 296 299 300 298 296 294 292 294 290 292 295 297 299 299 297 292 290 289 288 288 285 283 284 283 281 281 280 279 278 278
283 288 292 297 299 298 295 294 294 293 290 291 294 298 298 298 298 297 297 294 292 292 291 291 291 291 290 289 288 287 286 285 283
283 289 293 295 298 300 297 296 296 292 293 294 297 299 299 301 302 300 296 293 290 289 289 288 288 287 288 287 287 285 283 282 281
281 286 289 295 298 296 294 294 296 298 298 299 302 303 301 301 301 300 297 293 291 289 288 286 285 284 283 284 284 283 283 281 281
277 282 287 294 294 288 286 289 295 301 301 299 297 296 297 297 299 298 295 292 291 291 289 287 286 285 283 282 281 281 280 280 280
276 279 285 290 293 282 283 288 292 295 296 295 294 295 295 294 296 297 294 292 291 289 289 288 287 287 286 286 285 284 282 281 281
275 276 287 289 290 279 282 286 290 294 294 294 295 295 295 296 296 294 293 292 291 290 290 290 289 289 288 288 286 286 284 283 282
272 280 286 291 287 283 284 287 290 293 294 296 297 296 295 295 294 293 292 291 290 291 291 291 291 292 291 290 289 287 286 284 283
277 284 291 288 285 285 287 289 292 295 296 297 296 293 293 293 294 294 294 293 294 295 295 295 294 293 293 291 290 290 288 287 285
281 286 290 288 285 288 291 293 296 297 297 295 291 290 293 296 297 297 296 295 296 296 296 296 296 295 293 292 291 289 288 286 285
281 284 288 287 290 291 292 295 296 297 296 293 292 290 290 291 292 293 295 296 297 297 297 297 296 294 292 290 289 288 287 286 285
280 284 287 289 291 291 294 295 295 296 295 295 297 297 297 295 293 291 293 295 296 296 297 296 294 292 290 289 288 287 286 285 285
281 284 287 290 292 294 296 296 296 297 297 297 297 297 297 298 298 299 297 299 301 299 297 294 291 288 287 287 287 286 286 285 285
Height
5835 5835 5835 5836 5835 5834 5834 5833 5833 5832 5831 5831 5830 5830 5830 5829 5828 5828 5827 5827 5826 5825 5825 5825 5824 5825 5825 5825 5825 5825 5825 5825 5825
5831 5831 5831 5832 5832 5831 5830 5830 5829 5829 5828 5827 5826 5826 5825 5825 5824 5823 5822 5821 5820 5819 5819 5818 5818 5818 5818 5819 5819 5818 5818 5818 5818
5828 5828 5828 5828 5828 5827 5826 5826 5825 5824 5824 5822 5821 5821 5821 5820 5818 5818 5817 5815 5814 5813 5813 5813 5812 5812 5812 5812 5812 5811 5811 5811 5811
5825 5823 5824 5824 5824 5823 5821 5822 5820 5820 5819 5817 5816 5816 5815 5813 5813 5812 5811 5810 5808 5808 5806 5806 5806 5805 5804 5804 5804 5803 5803 5803 5802
5822 5821 5821 5820 5820 5818 5817 5817 5816 5816 5815 5813 5811 5811 5810 5808 5807 5806 5804 5803 5802 5801 5800 5799 5798 5797 5796 5795 5795 5794 5793 5793 5792
5818 5818 5817 5816 5815 5813 5814 5813 5812 5811 5810 5808 5806 5805 5804 5802 5800 5799 5797 5796 5794 5793 5792 5791 5790 5789 5788 5786 5785 5784 5783 5783 5782
5813 5813 5813 5811 5810 5808 5808 5807 5807 5805 5804 5802 5801 5799 5797 5795 5794 5792 5790 5788 5786 5784 5783 5781 5780 5780 5779 5776 5776 5775 5774 5773 5773
5809 5809 5808 5806 5805 5803 5802 5801 5800 5798 5797 5796 5795 5793 5791 5789 5786 5783 5781 5779 5777 5775 5773 5771 5771 5771 5769 5768 5767 5767 5766 5766 5765
5805 5804 5803 5801 5799 5797 5796 5794 5793 5792 5791 5790 5788 5786 5784 5782 5778 5775 5773 5770 5769 5767 5765 5763 5762 5761 5759 5759 5758 5758 5758 5757 5756
5800 5798 5797 5795 5793 5791 5789 5788 5787 5787 5785 5784 5782 5780 5777 5774 5771 5769 5766 5764 5761 5760 5758 5757 5755 5752 5751 5749 5748 5748 5747 5746 5745
5793 5793 5791 5790 5788 5786 5784 5783 5782 5780 5779 5777 5775 5773 5770 5767 5764 5762 5759 5756 5754 5752 5750 5749 5747 5745 5743 5742 5739 5737 5736 5735 5734
5788 5787 5786 5784 5782 5781 5780 5777 5776 5774 5771 5768 5766 5764 5761 5758 5755 5753 5750 5748 5746 5743 5741 5739 5737 5735 5733 5731 5729 5727 5725 5724 5723
5782 5781 5779 5778 5778 5776 5774 5772 5769 5767 5764 5760 5758 5755 5751 5748 5745 5743 5741 5739 5736 5734 5731 5728 5725 5723 5720 5718 5716 5714 5712 5711 5709
5776 5775 5774 5772 5771 5769 5767 5765 5762 5760 5756 5753 5749 5746 5742 5739 5736 5734 5731 5729 5726 5723 5719 5716 5713 5710 5707 5704 5701 5698 5696 5694 5692
5769 5768 5767 5765 5763 5761 5759 5757 5755 5752 5747 5743 5739 5736 5733 5730 5728 5725 5721 5718 5714 5711 5707 5703 5700 5696 5692 5688 5685 5682 5679 5676 5674
5763 5761 5759 5757 5756 5753 5751 5748 5745 5743 5739 5735 5730 5728 5725 5721 5718 5714 5710 5705 5701 5696 5692 5688 5684 5679 5674 5670 5667 5663 5659 5656 5653
5755 5753 5752 5750 5748 5745 5742 5739 5735 5732 5728 5725 5723 5721 5716 5711 5707 5702 5697 5693 5688 5682 5677 5672 5666 5661 5657 5652 5648 5644 5640 5636 5633
5747 5746 5744 5742 5739 5736 5733 5729 5725 5720 5717 5715 5711 5709 5707 5704 5702 5694 5687 5681 5675 5669 5662 5656 5649 5644 5639 5634 5630 5626 5621 5617 5612
5740 5738 5736 5733 5730 5727 5723 5719 5714 5710 5706 5702 5698 5693 5689 5686 5687 5685 5678 5671 5664 5657 5649 5641 5634 5627 5621 5616 5611 5606 5601 5595 5589
5732 5730 5727 5723 5720 5716 5712 5707 5703 5699 5695 5690 5685 5680 5674 5667 5663 5663 5661 5655 5646 5639 5631 5624 5617 5609 5603 5597 5591 5584 5578 5570 5564